La Palma > ESTACION METEOROLÓGICA Las Cabezadas - Puntagorda

DATOS ACTUALES Online

Ultima actulizacion 43 minutos

14.7 ºC

Temperatura

78

Humedad (%)

1017.5

Presión (mb)

0

Precipitación (mm)

9.3 NE

Viento (Km/h)

DATOS DIARIOS

Temperatura últimas 24 horas (ºC)

Humedad últimas 24 horas (%)

Presión atmosférica últimas 24 horas (mb)

Precipitaciones últimas 23 horas (mm)

Viento últimas 24 horas (Km/h)

Hora Temperatura (°C) ºC Precipitación (mm) mm Presión (mb) mb Humedad (%) % Viento (Km/h) km/h
29 - 00:00 14.5 0 1018 81 7.9 NNE
29 - 01:00 14.9 0 1018 87 9.7 NNW
29 - 02:00 14.2 0 1017 88 7.9 NNW
29 - 03:00 14.3 0 1017 87 3.5 ENE
29 - 04:00 13.9 0 1017 82 11.9 ENE
29 - 05:00 14.3 0 1017 80 4 ESE
29 - 06:00 14.5 0 1017 82 0.3 SE
29 - 07:00 14.2 0 1017 89 2.9 NNE
29 - 08:00 14.5 0 1018 89 4.7 NNW
29 - 09:00 15.1 0 1018 83 4.7 NNW
29 - 10:00 15.4 0 1018 79 2.1 NNW
29 - 11:00 16.1 0 1018 76 3.2 NW
29 - 12:00 18 0 1018 71 0.6 SE
29 - 13:00 17.8 0 1018 74 7.6 SSW
29 - 14:00 19.6 0 1018 70 2.9 W
29 - 15:00 19.3 0 1017 69 1.8 SSE
29 - 16:00 20 0 1017 74 2.9 SE
29 - 17:00 18.9 0 1017 73 4.7 SSE
29 - 18:00 17.9 0 1017 77 1.4 ESE
29 - 19:00 16 0 1017 83 4 NW
29 - 20:00 15.3 0 1017 79 11.1 NNW
29 - 21:00 15.3 0 1018 78 4 NNE
29 - 22:00 14.7 0 1018 89 4 N
29 - 23:00 14.1 0 1018 92 8.2 NNE
30 - 00:00 14.7 0 1018 78 9.3 NE
Apalmet utiliza cookies propias y de terceros para mejorar la usabilidad y la experiencia web. Política de cookies.